QPF
0.01 0.01 0.02 0.03 0.04 0.09 0.15 0.16 0.20 0.27 0.29 0.31 0.29 0.25 0.24 0.24 0.25 0.21 0.21 0.23 0.22 0.22 0.20 0.19 0.16 0.15 0.16 0.17 0.15 0.12 0.09 0.06 0.06 0.08 0.07 0.05 0.04 0.03 0.02 0.02 0.02 0.02 0.02
0.00 0.00 0.01 0.01 0.03 0.04 0.07 0.10 0.14 0.22 0.32 0.38 0.43 0.39 0.39 0.36 0.31 0.27 0.24 0.23 0.23 0.24 0.24 0.21 0.19 0.16 0.16 0.16 0.14 0.11 0.09 0.07 0.07 0.09 0.10 0.08 0.06 0.04 0.02 0.02 0.02 0.02 0.01
0.01 0.01 0.01 0.01 0.02 0.03 0.05 0.08 0.12 0.18 0.26 0.35 0.40 0.40 0.42 0.41 0.36 0.32 0.30 0.30 0.27 0.24 0.22 0.22 0.20 0.17 0.14 0.12 0.10 0.09 0.10 0.09 0.07 0.08 0.09 0.10 0.08 0.06 0.04 0.02 0.01 0.01 0.01
0.01 0.01 0.01 0.01 0.02 0.03 0.05 0.07 0.10 0.15 0.21 0.28 0.32 0.34 0.39 0.42 0.42 0.37 0.31 0.28 0.27 0.25 0.23 0.22 0.21 0.19 0.16 0.12 0.09 0.06 0.06 0.06 0.06 0.05 0.04 0.05 0.05 0.05 0.05 0.03 0.01 0.01 0.01
0.02 0.02 0.02 0.02 0.02 0.03 0.04 0.07 0.10 0.14 0.20 0.26 0.30 0.33 0.37 0.43 0.42 0.36 0.29 0.25 0.24 0.22 0.20 0.20 0.18 0.15 0.12 0.10 0.07 0.05 0.04 0.04 0.04 0.04 0.03 0.03 0.03 0.03 0.04 0.03 0.02 0.02 0.03
0.03 0.02 0.02 0.02 0.03 0.03 0.04 0.07 0.09 0.14 0.16 0.18 0.22 0.25 0.27 0.30 0.32 0.31 0.26 0.23 0.20 0.17 0.14 0.13 0.13 0.11 0.09 0.07 0.05 0.04 0.04 0.04 0.04 0.04 0.04 0.04 0.04 0.04 0.05 0.04 0.03 0.03 0.03
0.03 0.02 0.03 0.02 0.03 0.04 0.05 0.06 0.07 0.09 0.10 0.13 0.19 0.23 0.25 0.26 0.27 0.25 0.25 0.21 0.18 0.15 0.12 0.11 0.10 0.10 0.09 0.07 0.06 0.05 0.04 0.04 0.03 0.02 0.02 0.02 0.02 0.02 0.02 0.02 0.01 0.01 0.01
0.03 0.03 0.04 0.03 0.03 0.03 0.05 0.06 0.06 0.07 0.08 0.11 0.16 0.19 0.23 0.24 0.20 0.16 0.16 0.16 0.15 0.15 0.14 0.10 0.08 0.07 0.06 0.05 0.04 0.04 0.03 0.02 0.02 0.02 0.02 0.02 0.01 0.01 0.01 0.01 0.01 0.01 0.01
0.04 0.05 0.05 0.04 0.04 0.04 0.05 0.06 0.08 0.08 0.07 0.08 0.10 0.10 0.12 0.13 0.12 0.11 0.10 0.11 0.11 0.12 0.11 0.09 0.07 0.05 0.04 0.04 0.03 0.03 0.02 0.02 0.01 0.01 0.01 0.01 0.01 0.00 0.00 0.00 0.00 0.00 0.00
0.04 0.03 0.04 0.03 0.04 0.04 0.05 0.05 0.08 0.10 0.11 0.09 0.11 0.12 0.11 0.11 0.11 0.10 0.09 0.09 0.09 0.07 0.06 0.05 0.04 0.03 0.03 0.03 0.02 0.02 0.02 0.01 0.01 0.00 0.00 0.00 0.00 0.00 0.00 0.00 0.00 0.00 0.00
0.06 0.04 0.03 0.03 0.04 0.05 0.05 0.05 0.06 0.08 0.13 0.17 0.17 0.18 0.21 0.22 0.16 0.11 0.11 0.10 0.08 0.07 0.06 0.05 0.04 0.03 0.02 0.02 0.02 0.02 0.01 0.01 0.01 0.00 0.00 0.00 0.00 0.00 0.00 0.00 0.00 0.00 0.00
0.10 0.08 0.07 0.06 0.06 0.07 0.07 0.06 0.06 0.08 0.11 0.16 0.17 0.17 0.18 0.24 0.27 0.22 0.17 0.11 0.07 0.05 0.04 0.03 0.02 0.01 0.01 0.01 0.01 0.01 0.00 0.00 0.00 0.00 0.00 0.00 0.00 0.00 0.00 0.00 0.00 0.00 0.00
0.13 0.10 0.09 0.08 0.06 0.07 0.07 0.07 0.06 0.07 0.08 0.10 0.11 0.12 0.11 0.11 0.12 0.12 0.12 0.10 0.07 0.04 0.02 0.02 0.01 0.01 0.00 0.00 0.00 0.00 0.00 0.00 0.00 0.00 0.00 0.00 0.00 0.00 0.00 0.00 0.00 0.00 0.00
0.13 0.12 0.10 0.08 0.06 0.06 0.06 0.06 0.05 0.05 0.06 0.06 0.07 0.08 0.07 0.05 0.04 0.03 0.04 0.04 0.04 0.03 0.02 0.01 0.01 0.01 0.00 0.00 0.00 0.00 0.00 0.00 0.00 0.00 0.00 0.00 0.00 0.00 0.00 0.00 0.00 0.00 0.00
0.14 0.11 0.10 0.10 0.09 0.06 0.05 0.04 0.04 0.04 0.05 0.05 0.04 0.05 0.03 0.02 0.02 0.02 0.02 0.02 0.02 0.02 0.02 0.01 0.01 0.00 0.00 0.00 0.00 0.00 0.00 0.00 0.00 0.00 0.00 0.00 0.00 0.00 0.00 0.00 0.00 0.00 0.00
0.13 0.12 0.10 0.12 0.10 0.06 0.05 0.04 0.04 0.03 0.03 0.04 0.03 0.02 0.01 0.02 0.02 0.02 0.01 0.01 0.01 0.01 0.01 0.00 0.00 0.00 0.00 0.00 0.00 0.00 0.00 0.00 0.00 0.00 0.00 0.00 0.00 0.00 0.00 0.00 0.00 0.00 0.00
0.12 0.11 0.10 0.11 0.09 0.07 0.05 0.05 0.05 0.04 0.04 0.03 0.02 0.01 0.01 0.01 0.01 0.01 0.01 0.01 0.01 0.00 0.00 0.00 0.00 0.00 0.00 0.00 0.00 0.00 0.00 0.00 0.00 0.00 0.00 0.00 0.00 0.00 0.00 0.00 0.00 0.00 0.00
0.10 0.09 0.10 0.09 0.07 0.06 0.04 0.03 0.03 0.03 0.02 0.01 0.01 0.01 0.01 0.01 0.01 0.01 0.01 0.01 0.01 0.00 0.00 0.00 0.00 0.00 0.00 0.00 0.00 0.00 0.00 0.00 0.00 0.00 0.00 0.00 0.00 0.00 0.00 0.00 0.00 0.00 0.00
0.10 0.07 0.07 0.07 0.06 0.05 0.03 0.02 0.02 0.01 0.01 0.01 0.01 0.01 0.01 0.01 0.01 0.01 0.01 0.01 0.01 0.00 0.00 0.00 0.00 0.00 0.00 0.00 0.00 0.00 0.00 0.00 0.00 0.00 0.00 0.00 0.00 0.00 0.00 0.00 0.01 0.01 0.01
0.10 0.09 0.07 0.07 0.05 0.04 0.04 0.02 0.01 0.01 0.01 0.01 0.01 0.01 0.01 0.01 0.01 0.01 0.01 0.01 0.01 0.01 0.00 0.00 0.00 0.00 0.00 0.00 0.00 0.00 0.00 0.00 0.00 0.00 0.00 0.00 0.00 0.00 0.00 0.00 0.01 0.01 0.01
0.11 0.08 0.06 0.06 0.05 0.03 0.03 0.02 0.01 0.01 0.01 0.00 0.00 0.00 0.01 0.01 0.01 0.01 0.01 0.01 0.01 0.01 0.01 0.00 0.00 0.00 0.00 0.00 0.00 0.00 0.00 0.00 0.00 0.00 0.00 0.00 0.00 0.00 0.00 0.00 0.01 0.01 0.00
0.10 0.07 0.05 0.04 0.03 0.02 0.02 0.02 0.01 0.01 0.00 0.00 0.01 0.01 0.01 0.01 0.01 0.01 0.01 0.01 0.02 0.01 0.01 0.01 0.01 0.00 0.00 0.00 0.00 0.00 0.00 0.00 0.00 0.00 0.00 0.00 0.00 0.00 0.00 0.00 0.00 0.00 0.00
0.08 0.06 0.04 0.03 0.03 0.02 0.02 0.01 0.01 0.01 0.01 0.01 0.01 0.01 0.01 0.01 0.01 0.01 0.01 0.01 0.01 0.01 0.01 0.01 0.01 0.00 0.00 0.00 0.00 0.00 0.00 0.00 0.00 0.00 0.00 0.00 0.00 0.00 0.00 0.00 0.00 0.00 0.00
0.06 0.05 0.04 0.03 0.02 0.02 0.01 0.01 0.01 0.01 0.01 0.01 0.01 0.02 0.01 0.02 0.02 0.01 0.01 0.01 0.01 0.01 0.01 0.01 0.00 0.00 0.00 0.00 0.00 0.00 0.00 0.00 0.00 0.00 0.00 0.00 0.00 0.00 0.00 0.00 0.00 0.01 0.00
0.05 0.05 0.04 0.02 0.01 0.01 0.01 0.01 0.01 0.01 0.01 0.01 0.01 0.01 0.02 0.02 0.02 0.01 0.00 0.00 0.00 0.00 0.00 0.00 0.00 0.01 0.01 0.00 0.00 0.00 0.00 0.00 0.00 0.00 0.00 0.01 0.01 0.01 0.01 0.00 0.00 0.00 0.00
0.04 0.05 0.03 0.02 0.01 0.01 0.01 0.01 0.02 0.01 0.01 0.01 0.02 0.02 0.02 0.02 0.01 0.00 0.00 0.00 0.00 0.00 0.00 0.00 0.00 0.00 0.00 0.00 0.00 0.00 0.00 0.00 0.00 0.00 0.01 0.01 0.01 0.01 0.00 0.00 0.00 0.00 0.00
MSLP
1006.42 1006.49 1006.67 1006.97 1007.42 1008.01 1008.74 1009.59 1010.49 1011.40 1012.24 1012.97 1013.56 1014.01 1014.35 1014.62 1014.86 1015.14 1015.47 1015.88 1016.36 1016.86 1017.36 1017.82 1018.21 1018.51 1018.74 1018.91 1019.06 1019.21 1019.40 1019.62 1019.89 1020.18 1020.48 1020.77 1021.02 1021.24 1021.41 1021.53 1021.60 1021.65 1021.65
1007.09 1007.10 1007.18 1007.37 1007.71 1008.20 1008.85 1009.63 1010.50 1011.39 1012.23 1012.99 1013.62 1014.12 1014.52 1014.85 1015.17 1015.52 1015.94 1016.42 1016.95 1017.51 1018.03 1018.49 1018.85 1019.09 1019.25 1019.33 1019.39 1019.45 1019.55 1019.72 1019.94 1020.22 1020.52 1020.82 1021.10 1021.36 1021.57 1021.74 1021.87 1021.97 1022.05
1008.05 1007.99 1007.96 1008.03 1008.21 1008.56 1009.07 1009.73 1010.50 1011.32 1012.14 1012.90 1013.57 1014.13 1014.61 1015.04 1015.47 1015.93 1016.45 1017.03 1017.64 1018.24 1018.79 1019.24 1019.56 1019.76 1019.83 1019.83 1019.79 1019.77 1019.79 1019.88 1020.05 1020.28 1020.56 1020.86 1021.15 1021.41 1021.65 1021.85 1022.03 1022.19 1022.33
1009.20 1009.08 1008.96 1008.89 1008.91 1009.08 1009.42 1009.92 1010.56 1011.29 1012.05 1012.80 1013.50 1014.13 1014.71 1015.26 1015.81 1016.40 1017.04 1017.71 1018.39 1019.03 1019.60 1020.04 1020.33 1020.47 1020.48 1020.41 1020.29 1020.19 1020.14 1020.17 1020.28 1020.47 1020.71 1020.97 1021.24 1021.49 1021.72 1021.93 1022.12 1022.31 1022.49
1010.44 1010.29 1010.10 1009.90 1009.78 1009.77 1009.92 1010.25 1010.74 1011.36 1012.05 1012.78 1013.51 1014.21 1014.89 1015.56 1016.24 1016.95 1017.69 1018.44 1019.18 1019.86 1020.42 1020.85 1021.10 1021.20 1021.16 1021.03 1020.87 1020.72 1020.62 1020.61 1020.67 1020.82 1021.01 1021.23 1021.45 1021.66 1021.85 1022.03 1022.20 1022.38 1022.57
1011.64 1011.51 1011.27 1010.99 1010.75 1010.60 1010.59 1010.76 1011.12 1011.62 1012.25 1012.95 1013.69 1014.45 1015.22 1016.00 1016.79 1017.59 1018.41 1019.22 1019.98 1020.66 1021.21 1021.61 1021.83 1021.89 1021.83 1021.67 1021.49 1021.32 1021.21 1021.18 1021.22 1021.33 1021.47 1021.64 1021.80 1021.94 1022.07 1022.19 1022.31 1022.45 1022.61
1012.73 1012.63 1012.40 1012.09 1011.77 1011.53 1011.41 1011.47 1011.71 1012.12 1012.69 1013.36 1014.12 1014.92 1015.75 1016.60 1017.46 1018.33 1019.18 1020.00 1020.76 1021.41 1021.92 1022.27 1022.46 1022.50 1022.42 1022.27 1022.10 1021.96 1021.86 1021.84 1021.88 1021.96 1022.07 1022.19 1022.28 1022.35 1022.40 1022.44 1022.48 1022.55 1022.66
1013.63 1013.60 1013.41 1013.13 1012.81 1012.53 1012.36 1012.35 1012.53 1012.88 1013.40 1014.06 1014.81 1015.62 1016.48 1017.36 1018.25 1019.12 1019.97 1020.76 1021.47 1022.06 1022.52 1022.82 1022.96 1022.99 1022.91 1022.79 1022.66 1022.55 1022.50 1022.51 1022.57 1022.66 1022.75 1022.82 1022.86 1022.86 1022.83 1022.78 1022.74 1022.73 1022.75
1014.33 1014.40 1014.30 1014.08 1013.82 1013.57 1013.42 1013.40 1013.55 1013.89 1014.38 1015.01 1015.74 1016.54 1017.39 1018.25 1019.11 1019.95 1020.74 1021.47 1022.10 1022.61 1022.99 1023.24 1023.35 1023.36 1023.30 1023.21 1023.13 1023.08 1023.09 1023.15 1023.24 1023.35 1023.44 1023.49 1023.48 1023.43 1023.32 1023.20 1023.08 1022.98 1022.93
1014.87 1015.04 1015.06 1014.95 1014.79 1014.63 1014.54 1014.56 1014.74 1015.08 1015.56 1016.16 1016.86 1017.63 1018.42 1019.23 1020.02 1020.78 1021.48 1022.11 1022.65 1023.08 1023.38 1023.57 1023.65 1023.65 1023.61 1023.56 1023.53 1023.55 1023.61 1023.72 1023.86 1023.99 1024.08 1024.12 1024.10 1024.00 1023.85 1023.67 1023.48 1023.31 1023.18
1015.30 1015.59 1015.72 1015.75 1015.71 1015.67 1015.69 1015.80 1016.03 1016.39 1016.87 1017.44 1018.10 1018.79 1019.51 1020.22 1020.91 1021.57 1022.17 1022.70 1023.14 1023.48 1023.72 1023.86 1023.93 1023.93 1023.91 1023.89 1023.90 1023.96 1024.07 1024.22 1024.39 1024.54 1024.65 1024.70 1024.66 1024.55 1024.38 1024.16 1023.92 1023.70 1023.52
1015.71 1016.09 1016.35 1016.50 1016.60 1016.70 1016.84 1017.04 1017.34 1017.73 1018.21 1018.75 1019.34 1019.95 1020.57 1021.18 1021.76 1022.30 1022.79 1023.23 1023.59 1023.87 1024.07 1024.18 1024.23 1024.24 1024.24 1024.24 1024.28 1024.37 1024.50 1024.67 1024.85 1025.02 1025.14 1025.19 1025.16 1025.05 1024.86 1024.63 1024.37 1024.12 1023.88
1016.15 1016.61 1016.96 1017.23 1017.47 1017.69 1017.94 1018.24 1018.60 1019.03 1019.49 1020.00 1020.51 1021.03 1021.54 1022.03 1022.50 1022.94 1023.35 1023.71 1024.02 1024.26 1024.44 1024.55 1024.61 1024.63 1024.64 1024.66 1024.70 1024.79 1024.92 1025.08 1025.26 1025.42 1025.54 1025.59 1025.57 1025.47 1025.29 1025.05 1024.79 1024.52 1024.26
1016.66 1017.17 1017.59 1017.96 1018.29 1018.62 1018.96 1019.34 1019.75 1020.19 1020.64 1021.09 1021.54 1021.96 1022.37 1022.76 1023.13 1023.48 1023.82 1024.14 1024.42 1024.66 1024.84 1024.97 1025.05 1025.09 1025.11 1025.13 1025.16 1025.23 1025.34 1025.47 1025.62 1025.76 1025.87 1025.92 1025.90 1025.80 1025.63 1025.41 1025.15 1024.87 1024.59
1017.23 1017.77 1018.24 1018.66 1019.05 1019.45 1019.86 1020.29 1020.72 1021.16 1021.59 1021.99 1022.36 1022.70 1023.01 1023.31 1023.60 1023.90 1024.20 1024.49 1024.78 1025.04 1025.25 1025.41 1025.52 1025.58 1025.61 1025.62 1025.64 1025.67 1025.73 1025.83 1025.93 1026.04 1026.12 1026.16 1026.14 1026.06 1025.90 1025.68 1025.43 1025.15 1024.86
1017.84 1018.39 1018.87 1019.31 1019.74 1020.17 1020.61 1021.05 1021.50 1021.92 1022.31 1022.65 1022.96 1023.22 1023.46 1023.68 1023.92 1024.18 1024.46 1024.76 1025.07 1025.36 1025.61 1025.82 1025.96 1026.05 1026.08 1026.08 1026.07 1026.07 1026.09 1026.13 1026.19 1026.27 1026.32 1026.35 1026.32 1026.24 1026.09 1025.88 1025.63 1025.35 1025.06
1018.47 1019.00 1019.47 1019.91 1020.33 1020.76 1021.20 1021.64 1022.06 1022.45 1022.80 1023.10 1023.34 1023.54 1023.72 1023.90 1024.10 1024.34 1024.62 1024.93 1025.27 1025.59 1025.89 1026.14 1026.32 1026.43 1026.47 1026.47 1026.44 1026.40 1026.38 1026.38 1026.40 1026.44 1026.48 1026.49 1026.46 1026.37 1026.23 1026.02 1025.77 1025.48 1025.18
1019.06 1019.57 1020.01 1020.42 1020.82 1021.23 1021.64 1022.05 1022.44 1022.80 1023.11 1023.36 1023.56 1023.72 1023.86 1024.00 1024.18 1024.41 1024.69 1025.02 1025.38 1025.74 1026.07 1026.36 1026.57 1026.70 1026.75 1026.75 1026.71 1026.65 1026.60 1026.58 1026.58 1026.59 1026.61 1026.61 1026.57 1026.48 1026.33 1026.12 1025.86 1025.56 1025.24
1019.60 1020.07 1020.48 1020.85 1021.21 1021.58 1021.95 1022.33 1022.69 1023.01 1023.29 1023.51 1023.67 1023.80 1023.92 1024.05 1024.22 1024.44 1024.72 1025.06 1025.43 1025.81 1026.17 1026.48 1026.71 1026.86 1026.93 1026.94 1026.90 1026.84 1026.78 1026.74 1026.72 1026.73 1026.73 1026.73 1026.68 1026.59 1026.43 1026.20 1025.93 1025.61 1025.27
1020.06 1020.50 1020.87 1021.20 1021.52 1021.85 1022.19 1022.53 1022.86 1023.16 1023.41 1023.62 1023.77 1023.89 1023.99 1024.11 1024.27 1024.48 1024.76 1025.10 1025.47 1025.86 1026.23 1026.55 1026.80 1026.97 1027.06 1027.08 1027.05 1027.00 1026.94 1026.90 1026.88 1026.88 1026.88 1026.86 1026.80 1026.69 1026.52 1026.28 1025.98 1025.63 1025.27
1020.43 1020.84 1021.17 1021.48 1021.77 1022.07 1022.39 1022.71 1023.02 1023.31 1023.55 1023.75 1023.90 1024.02 1024.12 1024.24 1024.39 1024.60 1024.87 1025.19 1025.56 1025.94 1026.31 1026.64 1026.90 1027.08 1027.19 1027.22 1027.21 1027.17 1027.13 1027.09 1027.07 1027.06 1027.04 1027.01 1026.93 1026.80 1026.60 1026.33 1026.01 1025.64 1025.25
1020.71 1021.09 1021.41 1021.69 1021.97 1022.26 1022.57 1022.89 1023.20 1023.49 1023.75 1023.95 1024.11 1024.24 1024.35 1024.46 1024.61 1024.81 1025.06 1025.37 1025.72 1026.09 1026.45 1026.78 1027.04 1027.24 1027.36 1027.42 1027.42 1027.40 1027.35 1027.31 1027.28 1027.25 1027.21 1027.15 1027.05 1026.88 1026.66 1026.36 1026.01 1025.61 1025.19
1020.88 1021.25 1021.56 1021.84 1022.13 1022.43 1022.75 1023.08 1023.41 1023.72 1023.99 1024.22 1024.40 1024.54 1024.65 1024.77 1024.92 1025.10 1025.34 1025.63 1025.97 1026.32 1026.67 1027.00 1027.27 1027.47 1027.60 1027.67 1027.68 1027.65 1027.61 1027.55 1027.49 1027.43 1027.35 1027.25 1027.11 1026.91 1026.65 1026.33 1025.95 1025.54 1025.11
1020.96 1021.32 1021.63 1021.94 1022.25 1022.58 1022.93 1023.29 1023.65 1023.98 1024.28 1024.53 1024.73 1024.88 1025.01 1025.13 1025.27 1025.45 1025.67 1025.95 1026.27 1026.61 1026.95 1027.27 1027.54 1027.74 1027.88 1027.95 1027.96 1027.92 1027.85 1027.76 1027.66 1027.55 1027.43 1027.28 1027.09 1026.86 1026.57 1026.23 1025.85 1025.43 1024.99
1020.95 1021.31 1021.64 1021.97 1022.32 1022.69 1023.08 1023.47 1023.87 1024.24 1024.56 1024.83 1025.05 1025.21 1025.35 1025.47 1025.61 1025.78 1025.99 1026.26 1026.56 1026.89 1027.23 1027.54 1027.81 1028.02 1028.15 1028.21 1028.20 1028.14 1028.03 1027.90 1027.75 1027.58 1027.40 1027.21 1026.98 1026.72 1026.42 1026.08 1025.70 1025.29 1024.86
1020.88 1021.25 1021.60 1021.96 1022.35 1022.76 1023.19 1023.62 1024.05 1024.44 1024.79 1025.07 1025.30 1025.47 1025.61 1025.73 1025.86 1026.03 1026.23 1026.49 1026.79 1027.11 1027.44 1027.76 1028.02 1028.22 1028.34 1028.39 1028.35 1028.26 1028.11 1027.92 1027.72 1027.50 1027.27 1027.04 1026.79 1026.51 1026.22 1025.89 1025.54 1025.16 1024.77
Thickness
5722 5726 5728 5731 5733 5732 5731 5731 5729 5727 5725 5723 5721 5718 5715 5714 5713 5710 5709 5708 5708 5708 5708 5706 5705 5705 5704 5703 5702 5700 5698 5697 5697 5695 5691 5689 5688 5686 5683 5681 5679 5677 5675
5710 5713 5718 5722 5723 5724 5724 5725 5724 5724 5723 5722 5718 5716 5712 5709 5706 5704 5703 5702 5701 5701 5700 5699 5698 5697 5696 5694 5693 5693 5693 5692 5690 5690 5686 5680 5677 5675 5673 5671 5668 5666 5665
5697 5700 5705 5710 5713 5714 5715 5717 5718 5719 5719 5718 5715 5710 5705 5701 5697 5696 5694 5693 5693 5692 5692 5690 5690 5688 5688 5687 5685 5685 5685 5684 5682 5682 5682 5678 5673 5669 5662 5659 5657 5655 5654
5684 5688 5691 5695 5700 5703 5707 5709 5711 5712 5712 5712 5709 5704 5699 5694 5690 5689 5685 5683 5683 5681 5680 5680 5679 5678 5678 5677 5677 5677 5678 5677 5675 5673 5672 5671 5671 5666 5658 5651 5647 5644 5641
5670 5673 5677 5682 5687 5691 5696 5699 5702 5704 5705 5704 5703 5699 5694 5689 5684 5680 5677 5673 5671 5670 5669 5668 5668 5668 5667 5667 5667 5667 5668 5668 5667 5665 5663 5661 5659 5658 5654 5645 5638 5634 5630
5658 5661 5666 5670 5674 5680 5684 5687 5690 5692 5694 5695 5694 5692 5687 5681 5676 5672 5668 5664 5661 5659 5658 5656 5656 5655 5656 5655 5655 5655 5655 5654 5653 5652 5651 5651 5649 5647 5644 5638 5630 5626 5620
5646 5649 5653 5657 5661 5666 5671 5674 5678 5680 5682 5684 5683 5681 5677 5673 5668 5663 5659 5655 5651 5649 5646 5644 5645 5645 5644 5643 5642 5642 5642 5641 5640 5639 5638 5638 5636 5634 5632 5629 5624 5618 5613
5635 5636 5639 5644 5648 5653 5657 5662 5665 5667 5669 5670 5670 5668 5665 5662 5657 5652 5649 5645 5641 5638 5635 5634 5634 5634 5633 5632 5631 5631 5630 5628 5627 5626 5625 5624 5623 5622 5621 5618 5616 5612 5607
5625 5625 5627 5631 5634 5639 5643 5648 5651 5654 5655 5656 5655 5654 5651 5648 5645 5640 5637 5634 5630 5627 5625 5624 5624 5622 5621 5620 5620 5618 5617 5616 5616 5615 5613 5612 5609 5608 5607 5605 5604 5602 5599
5615 5615 5616 5618 5621 5626 5630 5634 5637 5640 5641 5641 5640 5639 5637 5634 5632 5628 5624 5621 5617 5615 5615 5614 5612 5611 5610 5609 5609 5608 5606 5605 5602 5600 5598 5598 5597 5595 5593 5592 5590 5588 5586
5605 5605 5605 5608 5611 5614 5618 5621 5622 5624 5625 5625 5624 5623 5621 5618 5617 5614 5611 5608 5606 5604 5604 5602 5601 5600 5599 5598 5597 5596 5595 5593 5590 5588 5586 5583 5581 5581 5580 5578 5576 5573 5570
5596 5594 5595 5597 5599 5601 5604 5607 5608 5609 5609 5609 5609 5607 5606 5605 5603 5600 5597 5595 5594 5592 5592 5592 5591 5590 5588 5587 5586 5585 5583 5581 5579 5576 5574 5571 5569 5566 5565 5563 5561 5558 5553
5587 5585 5585 5587 5588 5590 5592 5593 5595 5595 5595 5596 5595 5594 5592 5591 5589 5586 5585 5583 5582 5581 5581 5581 5580 5578 5577 5575 5574 5573 5571 5569 5566 5564 5561 5558 5556 5554 5552 5550 5548 5547 5544
5579 5577 5576 5577 5578 5579 5580 5582 5582 5582 5583 5583 5582 5580 5578 5577 5575 5574 5572 5572 5571 5570 5569 5569 5568 5567 5566 5565 5563 5561 5559 5557 5554 5551 5548 5546 5543 5541 5539 5538 5536 5534 5533
5572 5571 5569 5569 5569 5570 5570 5571 5571 5570 5571 5571 5570 5567 5565 5564 5563 5562 5561 5560 5560 5559 5558 5558 5557 5556 5554 5552 5551 5550 5548 5545 5542 5540 5537 5532 5528 5523 5524 5525 5524 5524 5524
5566 5563 5562 5560 5560 5560 5560 5560 5559 5559 5560 5559 5557 5556 5554 5553 5552 5551 5550 5549 5548 5548 5547 5547 5546 5544 5541 5535 5535 5536 5537 5534 5532 5530 5527 5524 5520 5515 5512 5510 5509 5507 5510
5561 5557 5555 5553 5552 5551 5551 5550 5550 5549 5549 5548 5547 5546 5545 5544 5543 5543 5541 5539 5538 5537 5536 5536 5535 5531 5525 5522 5522 5522 5526 5524 5521 5519 5518 5517 5513 5510 5509 5506 5502 5501 5498
5555 5551 5548 5546 5544 5542 5541 5540 5540 5540 5540 5539 5538 5537 5536 5535 5534 5533 5531 5530 5529 5527 5526 5525 5524 5520 5514 5511 5511 5511 5515 5515 5512 5510 5508 5507 5504 5501 5498 5501 5502 5500 5498
5549 5546 5543 5540 5538 5535 5534 5533 5533 5532 5532 5531 5530 5529 5529 5528 5527 5525 5523 5521 5520 5518 5517 5516 5514 5511 5505 5502 5502 5501 5509 5508 5505 5503 5499 5498 5497 5489 5488 5493 5495 5495 5493
5543 5539 5537 5534 5532 5529 5528 5528 5526 5525 5525 5524 5524 5523 5522 5521 5519 5517 5515 5514 5512 5511 5510 5507 5505 5503 5499 5493 5494 5494 5504 5502 5501 5498 5494 5487 5486 5483 5482 5487 5489 5488 5487
5537 5535 5532 5529 5526 5525 5523 5522 5521 5520 5519 5518 5517 5515 5514 5512 5511 5509 5507 5506 5506 5504 5502 5499 5497 5494 5490 5487 5486 5487 5493 5496 5496 5496 5493 5485 5479 5477 5477 5477 5480 5477 5476
5532 5529 5527 5524 5521 5520 5518 5517 5515 5513 5512 5511 5509 5508 5507 5507 5504 5502 5500 5499 5498 5497 5495 5493 5492 5490 5486 5482 5480 5480 5480 5480 5486 5487 5486 5479 5473 5472 5471 5473 5471 5472 5472
5528 5524 5522 5519 5516 5514 5513 5511 5508 5507 5505 5504 5502 5500 5499 5498 5497 5496 5494 5493 5492 5494 5493 5491 5490 5489 5485 5479 5476 5475 5475 5475 5478 5478 5471 5470 5469 5468 5470 5467 5468 5470 5474
5523 5520 5518 5515 5511 5508 5507 5505 5503 5501 5499 5497 5496 5494 5493 5491 5489 5490 5490 5489 5488 5487 5487 5486 5485 5484 5482 5480 5478 5478 5476 5472 5474 5474 5470 5466 5466 5467 5466 5468 5470 5470 5469
5520 5517 5514 5510 5506 5504 5501 5500 5497 5496 5494 5492 5491 5490 5489 5486 5483 5482 5478 5479 5475 5474 5476 5478 5479 5478 5477 5467 5463 5464 5470 5469 5469 5468 5472 5471 5470 5470 5469 5468 5467 5466 5467
5518 5514 5510 5507 5503 5500 5497 5495 5492 5491 5489 5487 5486 5485 5484 5482 5481 5478 5473 5464 5464 5462 5462 5461 5463 5464 5461 5459 5459 5459 5459 5460 5460 5463 5469 5467 5467 5466 5465 5465 5465 5464 5463